Time,TemperatureF,DewpointF,PressureIn,WindDirection,WindDirectionDegrees,WindSpeedMPH,WindSpeedGustMPH,Humidity,HourlyPrecipIn,Conditions,Clouds,dailyrainin,SoftwareType,DateUTC
2013-05-05 00:01:00,52.7,43.6,30.11,North,11,0.0,0.0,71,0.00,,,0.00,WeatherCatV1.15B25,2013-05-05 04:01:00,
2013-05-05 00:02:00,52.7,43.6,30.11,North,11,0.0,0.0,71,0.00,,,0.00,WeatherCatV1.15B25,2013-05-05 04:02:00,
2013-05-05 00:03:00,52.7,43.6,30.11,North,11,0.0,0.0,71,0.00,,,0.00,WeatherCatV1.15B25,2013-05-05 04:03:00,
2013-05-05 00:04:00,52.6,43.5,30.11,North,11,0.0,0.0,71,0.00,,,0.00,WeatherCatV1.15B25,2013-05-05 04:04:00,
2013-05-05 00:06:00,52.6,43.5,30.11,North,10,0.0,0.0,71,0.00,,,0.00,WeatherCatV1.15B25,2013-05-05 04:06:00,
2013-05-05 00:11:00,52.6,43.8,30.11,North,10,0.0,0.0,72,0.00,,,0.00,WeatherCatV1.15B25,2013-05-05 04:11:00,
2013-05-05 00:16:00,52.5,43.7,30.11,North,11,0.0,0.0,72,0.00,,,0.00,WeatherCatV1.15B25,2013-05-05 04:16:00,
2013-05-05 00:21:00,52.5,43.7,30.11,North,11,0.0,0.0,72,0.00,,,0.00,WeatherCatV1.15B25,2013-05-05 04:21:00,
2013-05-05 00:26:00,52.4,44.0,30.11,North,11,0.0,0.0,73,0.00,,,0.00,WeatherCatV1.15B25,2013-05-05 04:26:00,
2013-05-05 00:31:00,52.4,44.0,30.11,North,10,0.0,0.0,73,0.00,,,0.00,WeatherCatV1.15B25,2013-05-05 04:31:00,
2013-05-05 00:36:00,52.4,44.0,30.11,North,11,0.0,0.0,73,0.00,,,0.00,WeatherCatV1.15B25,2013-05-05 04:36:00,
2013-05-05 00:41:00,52.4,44.0,30.11,North,10,0.0,0.0,73,0.00,,,0.00,WeatherCatV1.15B25,2013-05-05 04:41:00,
2013-05-05 00:46:00,52.6,44.2,30.11,North,10,0.0,0.0,73,0.00,,,0.00,WeatherCatV1.15B25,2013-05-05 04:46:00,
2013-05-05 00:51:00,52.9,44.1,30.11,North,11,0.0,0.0,72,0.00,,,0.00,WeatherCatV1.15B25,2013-05-05 04:51:00,
2013-05-05 00:56:00,53.1,44.3,30.11,North,11,0.0,0.0,72,0.00,,,0.00,WeatherCatV1.15B25,2013-05-05 04:56:00,
2013-05-05 01:01:00,53.3,44.1,30.11,North,10,0.0,0.0,71,0.00,,,0.00,WeatherCatV1.15B25,2013-05-05 05:01:00,
2013-05-05 01:06:00,53.4,43.9,30.11,North,10,0.0,0.0,70,0.00,,,0.00,WeatherCatV1.15B25,2013-05-05 05:06:00,
2013-05-05 01:11:00,53.5,43.6,30.11,North,11,0.0,0.0,69,0.00,,,0.00,WeatherCatV1.15B25,2013-05-05 05:11:00,
2013-05-05 01:16:00,53.6,43.7,30.11,North,11,0.0,0.0,69,0.00,,,0.00,WeatherCatV1.15B25,2013-05-05 05:16:00,
2013-05-05 01:21:00,54.0,43.7,30.11,North,10,0.0,0.0,68,0.00,,,0.00,WeatherCatV1.15B25,2013-05-05 05:21:00,
2013-05-05 01:26:00,54.5,43.8,30.11,North,10,0.0,0.0,67,0.00,,,0.00,WeatherCatV1.15B25,2013-05-05 05:26:00,
2013-05-05 01:31:00,55.1,43.5,30.11,North,11,0.0,0.0,65,0.00,,,0.00,WeatherCatV1.15B25,2013-05-05 05:31:00,
2013-05-05 01:36:00,55.6,43.2,30.11,North,11,0.0,0.0,63,0.00,,,0.00,WeatherCatV1.15B25,2013-05-05 05:36:00,
2013-05-05 01:41:00,56.3,43.0,30.11,North,10,0.0,0.0,61,0.00,,,0.00,WeatherCatV1.15B25,2013-05-05 05:41:00,
2013-05-05 01:46:00,56.5,43.6,30.11,North,11,0.0,0.0,62,0.00,,,0.00,WeatherCatV1.15B25,2013-05-05 05:46:00,
2013-05-05 01:51:00,56.6,43.3,30.10,North,11,0.0,0.0,61,0.00,,,0.00,WeatherCatV1.15B25,2013-05-05 05:51:00,
2013-05-05 01:56:00,56.5,43.2,30.10,North,10,0.0,0.0,61,0.00,,,0.00,WeatherCatV1.15B25,2013-05-05 05:56:00,
2013-05-05 02:01:00,56.3,43.0,30.11,North,10,0.0,0.0,61,0.00,,,0.00,WeatherCatV1.15B25,2013-05-05 06:01:00,
2013-05-05 02:06:00,56.2,42.9,30.11,North,11,0.0,0.0,61,0.00,,,0.00,WeatherCatV1.15B25,2013-05-05 06:06:00,
2013-05-05 02:11:00,56.2,42.9,30.11,North,11,0.0,0.0,61,0.00,,,0.00,WeatherCatV1.15B25,2013-05-05 06:11:00,
2013-05-05 02:16:00,56.3,43.0,30.11,North,11,0.0,0.0,61,0.00,,,0.00,WeatherCatV1.15B25,2013-05-05 06:16:00,
2013-05-05 02:21:00,56.5,43.2,30.11,North,11,0.0,0.0,61,0.00,,,0.00,WeatherCatV1.15B25,2013-05-05 06:21:00,
2013-05-05 02:26:00,56.6,42.9,30.11,North,11,0.0,0.0,60,0.00,,,0.00,WeatherCatV1.15B25,2013-05-05 06:26:00,
2013-05-05 02:31:00,56.5,42.8,30.10,North,10,0.0,0.0,60,0.00,,,0.00,WeatherCatV1.15B25,2013-05-05 06:31:00,
2013-05-05 02:36:00,56.4,42.7,30.10,North,10,0.0,0.0,60,0.00,,,0.00,WeatherCatV1.15B25,2013-05-05 06:36:00,
2013-05-05 02:41:00,56.4,43.1,30.10,NNE,21,0.0,0.0,61,0.00,,,0.00,WeatherCatV1.15B25,2013-05-05 06:41:00,
2013-05-05 02:46:00,56.3,43.0,30.10,NNE,21,0.0,0.0,61,0.00,,,0.00,WeatherCatV1.15B25,2013-05-05 06:46:00,
2013-05-05 02:51:00,56.2,42.9,30.10,NNE,21,0.0,0.0,61,0.00,,,0.00,WeatherCatV1.15B25,2013-05-05 06:51:00,
2013-05-05 02:56:00,56.1,42.8,30.10,NNE,21,0.0,0.0,61,0.00,,,0.00,WeatherCatV1.15B25,2013-05-05 06:56:00,
2013-05-05 03:01:00,55.9,43.1,30.10,NNE,21,0.0,0.0,62,0.00,,,0.00,WeatherCatV1.15B25,2013-05-05 07:01:00,
2013-05-05 03:06:00,55.5,43.1,30.10,NNE,21,0.0,0.0,63,0.00,,,0.00,WeatherCatV1.15B25,2013-05-05 07:06:00,
2013-05-05 03:11:00,55.1,42.7,30.10,NNE,21,0.0,0.0,63,0.00,,,0.00,WeatherCatV1.15B25,2013-05-05 07:11:00,
2013-05-05 03:16:00,54.7,42.8,30.10,NNE,21,0.0,0.0,64,0.00,,,0.00,WeatherCatV1.15B25,2013-05-05 07:16:00,
2013-05-05 03:21:00,54.3,42.8,30.11,NNE,21,0.0,0.0,65,0.00,,,0.00,WeatherCatV1.15B25,2013-05-05 07:21:00,
2013-05-05 03:26:00,53.8,42.7,30.10,NNE,21,0.0,0.0,66,0.00,,,0.00,WeatherCatV1.15B25,2013-05-05 07:26:00,
2013-05-05 03:31:00,53.5,42.8,30.11,NNE,21,0.0,0.0,67,0.00,,,0.00,WeatherCatV1.15B25,2013-05-05 07:31:00,
2013-05-05 03:36:00,53.2,42.5,30.11,NNE,21,0.0,0.0,67,0.00,,,0.00,WeatherCatV1.15B25,2013-05-05 07:36:00,
2013-05-05 03:41:00,53.1,42.8,30.11,NNE,21,0.0,0.0,68,0.00,,,0.00,WeatherCatV1.15B25,2013-05-05 07:41:00,
2013-05-05 03:46:00,52.9,42.6,30.11,NNE,21,0.0,0.0,68,0.00,,,0.00,WeatherCatV1.15B25,2013-05-05 07:46:00,
2013-05-05 03:51:00,52.8,42.9,30.11,NNE,21,0.0,0.0,69,0.00,,,0.00,WeatherCatV1.15B25,2013-05-05 07:51:00,
2013-05-05 03:56:00,52.6,42.7,30.11,NNE,21,0.0,0.0,69,0.00,,,0.00,WeatherCatV1.15B25,2013-05-05 07:56:00,
2013-05-05 04:01:00,52.3,42.8,30.11,NNE,21,0.0,0.0,70,0.00,,,0.00,WeatherCatV1.15B25,2013-05-05 08:01:00,
2013-05-05 04:06:00,52.0,42.5,30.11,NNE,21,0.0,0.0,70,0.00,,,0.00,WeatherCatV1.15B25,2013-05-05 08:06:00,
2013-05-05 04:11:00,51.8,42.7,30.11,NNE,21,0.0,0.0,71,0.00,,,0.00,WeatherCatV1.15B25,2013-05-05 08:11:00,
2013-05-05 04:16:00,51.5,42.4,30.11,NNE,21,0.0,0.0,71,0.00,,,0.00,WeatherCatV1.15B25,2013-05-05 08:16:00,
2013-05-05 04:21:00,51.3,42.6,30.11,NNE,21,0.0,0.0,72,0.00,,,0.00,WeatherCatV1.15B25,2013-05-05 08:21:00,
2013-05-05 04:26:00,51.2,42.5,30.11,NNE,21,0.0,0.0,72,0.00,,,0.00,WeatherCatV1.15B25,2013-05-05 08:26:00,
2013-05-05 04:31:00,50.8,42.5,30.11,NNE,21,0.0,0.0,73,0.00,,,0.00,WeatherCatV1.15B25,2013-05-05 08:31:00,
2013-05-05 04:36:00,50.6,42.3,30.12,NNE,21,0.0,0.0,73,0.00,,,0.00,WeatherCatV1.15B25,2013-05-05 08:36:00,
2013-05-05 04:41:00,50.3,42.3,30.12,NNE,21,0.0,0.0,74,0.00,,,0.00,WeatherCatV1.15B25,2013-05-05 08:41:00,
2013-05-05 04:46:00,50.1,42.1,30.12,NNE,21,0.0,0.0,74,0.00,,,0.00,WeatherCatV1.15B25,2013-05-05 08:46:00,
2013-05-05 04:51:00,50.0,42.4,30.11,NNE,21,0.0,0.0,75,0.00,,,0.00,WeatherCatV1.15B25,2013-05-05 08:51:00,
2013-05-05 04:56:00,49.8,42.2,30.11,NNE,21,0.0,0.0,75,0.00,,,0.00,WeatherCatV1.15B25,2013-05-05 08:56:00,
2013-05-05 05:01:00,49.6,42.0,30.11,NNE,21,0.0,0.0,75,0.00,,,0.00,WeatherCatV1.15B25,2013-05-05 09:01:00,
2013-05-05 05:06:00,49.3,42.1,30.11,NNE,21,0.0,0.0,76,0.00,,,0.00,WeatherCatV1.15B25,2013-05-05 09:06:00,
2013-05-05 05:11:00,49.1,42.2,30.11,NNE,21,0.0,0.0,77,0.00,,,0.00,WeatherCatV1.15B25,2013-05-05 09:11:00,
2013-05-05 05:16:00,48.9,42.0,30.12,NNE,21,0.0,0.0,77,0.00,,,0.00,WeatherCatV1.15B25,2013-05-05 09:16:00,
2013-05-05 05:21:00,48.8,42.2,30.12,NNE,21,0.0,0.0,78,0.00,,,0.00,WeatherCatV1.15B25,2013-05-05 09:21:00,
2013-05-05 05:26:00,48.7,42.5,30.12,NNE,21,0.0,0.0,79,0.00,,,0.00,WeatherCatV1.15B25,2013-05-05 09:26:00,
2013-05-05 05:31:00,48.6,42.4,30.12,NNE,21,0.0,0.0,79,0.00,,,0.00,WeatherCatV1.15B25,2013-05-05 09:31:00,
2013-05-05 05:36:00,48.5,42.3,30.12,NNE,21,0.0,0.0,79,0.00,,,0.00,WeatherCatV1.15B25,2013-05-05 09:36:00,
2013-05-05 05:41:00,48.4,42.2,30.12,NNE,21,0.0,0.0,79,0.00,,,0.00,WeatherCatV1.15B25,2013-05-05 09:41:00,
2013-05-05 05:46:00,48.3,42.4,30.12,NNE,21,0.0,0.0,80,0.00,,,0.00,WeatherCatV1.15B25,2013-05-05 09:46:00,
2013-05-05 05:51:00,48.1,42.2,30.12,NNE,21,0.0,0.0,80,0.00,,,0.00,WeatherCatV1.15B25,2013-05-05 09:51:00,
2013-05-05 05:56:00,48.0,42.1,30.13,NNE,21,0.0,0.0,80,0.00,,,0.00,WeatherCatV1.15B25,2013-05-05 09:56:00,
2013-05-05 06:01:00,47.8,42.3,30.12,NNE,21,0.0,0.0,81,0.00,,,0.00,WeatherCatV1.15B25,2013-05-05 10:01:00,
2013-05-05 06:06:00,47.5,42.0,30.12,NNE,21,0.0,0.0,81,0.00,,,0.00,WeatherCatV1.15B25,2013-05-05 10:06:00,
2013-05-05 06:11:00,47.4,42.2,30.13,NNE,21,0.0,0.0,82,0.00,,,0.00,WeatherCatV1.15B25,2013-05-05 10:11:00,
2013-05-05 06:16:00,47.2,42.0,30.13,NNE,21,0.0,0.0,82,0.00,,,0.00,WeatherCatV1.15B25,2013-05-05 10:16:00,
2013-05-05 06:21:00,47.2,42.3,30.13,NNE,21,0.0,0.0,83,0.00,,,0.00,WeatherCatV1.15B25,2013-05-05 10:21:00,
2013-05-05 06:26:00,47.2,42.3,30.13,NNE,21,0.0,0.0,83,0.00,,,0.00,WeatherCatV1.15B25,2013-05-05 10:26:00,
2013-05-05 06:31:00,47.2,42.3,30.13,NNE,21,0.0,0.0,83,0.00,,,0.00,WeatherCatV1.15B25,2013-05-05 10:31:00,
2013-05-05 06:36:00,47.3,42.4,30.13,NNE,21,0.0,0.0,83,0.00,,,0.00,WeatherCatV1.15B25,2013-05-05 10:36:00,
2013-05-05 06:41:00,47.4,42.8,30.13,NNE,21,0.0,0.0,84,0.00,,,0.00,WeatherCatV1.15B25,2013-05-05 10:41:00,
2013-05-05 06:46:00,47.6,43.0,30.13,NNE,21,0.0,0.0,84,0.00,,,0.00,WeatherCatV1.15B25,2013-05-05 10:46:00,
2013-05-05 06:51:00,47.7,43.1,30.14,NNE,21,0.0,0.0,84,0.00,,,0.00,WeatherCatV1.15B25,2013-05-05 10:51:00,
2013-05-05 06:56:00,47.8,43.2,30.13,West,269,0.0,0.0,84,0.00,,,0.00,WeatherCatV1.15B25,2013-05-05 10:56:00,
2013-05-05 07:01:00,48.0,43.4,30.14,West,269,0.0,0.0,84,0.00,,,0.00,WeatherCatV1.15B25,2013-05-05 11:01:00,
2013-05-05 07:06:00,48.3,43.7,30.14,West,269,0.0,0.0,84,0.00,,,0.00,WeatherCatV1.15B25,2013-05-05 11:06:00,
2013-05-05 07:11:00,48.6,44.0,30.14,West,269,0.0,0.0,84,0.00,,,0.00,WeatherCatV1.15B25,2013-05-05 11:11:00,
2013-05-05 07:16:00,49.0,44.4,30.14,West,269,0.0,0.0,84,0.00,,,0.00,WeatherCatV1.15B25,2013-05-05 11:16:00,
2013-05-05 07:21:00,49.6,45.0,30.13,SSW,204,0.0,0.0,84,0.00,,,0.00,WeatherCatV1.15B25,2013-05-05 11:21:00,
2013-05-05 07:26:00,50.2,45.2,30.13,SSW,204,0.0,0.0,83,0.00,,,0.00,WeatherCatV1.15B25,2013-05-05 11:26:00,
2013-05-05 07:31:00,50.9,45.6,30.13,SSW,203,0.0,0.0,82,0.00,,,0.00,WeatherCatV1.15B25,2013-05-05 11:31:00,
2013-05-05 07:36:00,51.5,45.9,30.13,WNW,287,0.0,0.0,81,0.00,,,0.00,WeatherCatV1.15B25,2013-05-05 11:36:00,
2013-05-05 07:41:00,51.9,45.9,30.13,WNW,289,0.0,0.0,80,0.00,,,0.00,WeatherCatV1.15B25,2013-05-05 11:41:00,
2013-05-05 07:46:00,52.6,45.9,30.13,NNW,342,0.0,0.0,78,0.00,,,0.00,WeatherCatV1.15B25,2013-05-05 11:46:00,
2013-05-05 07:51:00,53.4,45.3,30.13,West,267,0.0,0.0,74,0.00,,,0.00,WeatherCatV1.15B25,2013-05-05 11:51:00,
2013-05-05 07:56:00,54.2,45.4,30.13,North,0,0.0,0.0,72,0.00,,,0.00,WeatherCatV1.15B25,2013-05-05 11:56:00,
2013-05-05 08:01:00,55.0,45.4,30.13,North,5,0.0,0.0,70,0.00,,,0.00,WeatherCatV1.15B25,2013-05-05 12:01:00,
2013-05-05 08:06:00,55.6,44.8,30.13,SE,126,0.0,0.0,67,0.00,,,0.00,WeatherCatV1.15B25,2013-05-05 12:06:00,
2013-05-05 08:11:00,56.1,44.9,30.12,North,11,0.0,0.0,66,0.00,,,0.00,WeatherCatV1.15B25,2013-05-05 12:11:00,
2013-05-05 08:16:00,56.8,45.6,30.12,NE,42,0.0,0.0,66,0.00,,,0.00,WeatherCatV1.15B25,2013-05-05 12:16:00,
2013-05-05 08:21:00,57.5,45.0,30.12,NE,42,0.0,0.0,63,0.00,,,0.00,WeatherCatV1.15B25,2013-05-05 12:21:00,
2013-05-05 08:26:00,58.3,44.9,30.12,NE,42,0.0,0.0,61,0.00,,,0.00,WeatherCatV1.15B25,2013-05-05 12:26:00,
2013-05-05 08:32:00,59.6,45.3,30.12,NE,41,0.0,0.0,59,0.00,,,0.00,WeatherCatV1.15B25,2013-05-05 12:32:00,
2013-05-05 08:37:00,60.6,45.3,30.12,NE,49,0.0,0.0,57,0.00,,,0.00,WeatherCatV1.15B25,2013-05-05 12:37:00,
2013-05-05 08:42:00,61.1,45.3,30.12,NE,40,0.0,0.0,56,0.00,,,0.00,WeatherCatV1.15B25,2013-05-05 12:42:00,
2013-05-05 08:47:00,61.8,44.5,30.12,North,0,0.0,0.0,53,0.00,,,0.00,WeatherCatV1.15B25,2013-05-05 12:47:00,
2013-05-05 08:52:00,61.9,43.6,30.12,North,9,1.0,2.0,51,0.00,,,0.00,WeatherCatV1.15B25,2013-05-05 12:52:00,
2013-05-05 08:57:00,62.5,44.1,30.12,SE,140,0.0,3.0,51,0.00,,,0.00,WeatherCatV1.15B25,2013-05-05 12:57:00,
2013-05-05 09:02:00,62.7,42.7,30.12,ESE,119,6.0,9.0,48,0.00,,,0.00,WeatherCatV1.15B25,2013-05-05 13:02:00,
2013-05-05 09:07:00,62.8,42.3,30.12,SE,140,0.0,4.0,47,0.00,,,0.00,WeatherCatV1.15B25,2013-05-05 13:07:00,
2013-05-05 09:12:00,63.4,42.3,30.12,SE,128,2.0,4.0,46,0.00,,,0.00,WeatherCatV1.15B25,2013-05-05 13:12:00,
2013-05-05 09:17:00,63.7,42.0,30.12,SE,124,0.0,4.0,45,0.00,,,0.00,WeatherCatV1.15B25,2013-05-05 13:17:00,
2013-05-05 09:22:00,64.1,41.7,30.12,SE,129,3.0,5.0,44,0.00,,,0.00,WeatherCatV1.15B25,2013-05-05 13:22:00,
2013-05-05 09:27:00,64.6,42.2,30.12,SSE,168,4.0,5.0,44,0.00,,,0.00,WeatherCatV1.15B25,2013-05-05 13:27:00,
2013-05-05 09:32:00,64.9,40.6,30.12,East,88,0.0,5.0,41,0.00,,,0.00,WeatherCatV1.15B25,2013-05-05 13:32:00,
2013-05-05 09:37:00,65.1,40.8,30.12,ESE,111,2.0,10.0,41,0.00,,,0.00,WeatherCatV1.15B25,2013-05-05 13:37:00,
2013-05-05 09:42:00,65.4,39.8,30.12,ESE,119,10.0,12.0,39,0.00,,,0.00,WeatherCatV1.15B25,2013-05-05 13:42:00,
2013-05-05 09:47:00,65.3,41.6,30.12,ENE,78,2.0,11.0,42,0.00,,,0.00,WeatherCatV1.15B25,2013-05-05 13:47:00,
2013-05-05 09:52:00,65.6,39.3,30.11,ESE,121,7.0,11.0,38,0.00,,,0.00,WeatherCatV1.15B25,2013-05-05 13:52:00,
2013-05-05 09:57:00,65.6,39.3,30.11,SE,132,5.0,10.0,38,0.00,,,0.00,WeatherCatV1.15B25,2013-05-05 13:57:00,
2013-05-05 10:02:00,65.9,40.9,30.12,ESE,107,3.0,4.0,40,0.00,,,0.00,WeatherCatV1.15B25,2013-05-05 14:02:00,
2013-05-05 10:07:00,66.5,41.4,30.12,SE,135,5.0,7.0,40,0.00,,,0.00,WeatherCatV1.15B25,2013-05-05 14:07:00,
2013-05-05 10:12:00,66.8,41.0,30.11,SSE,155,4.0,7.0,39,0.00,,,0.00,WeatherCatV1.15B25,2013-05-05 14:12:00,
2013-05-05 10:17:00,66.9,39.8,30.11,SE,142,5.0,9.0,37,0.00,,,0.00,WeatherCatV1.15B25,2013-05-05 14:17:00,
2013-05-05 10:22:00,66.8,41.0,30.11,ESE,113,1.0,8.0,39,0.00,,,0.00,WeatherCatV1.15B25,2013-05-05 14:22:00,
2013-05-05 10:27:00,67.2,40.0,30.11,SE,126,2.0,4.0,37,0.00,,,0.00,WeatherCatV1.15B25,2013-05-05 14:27:00,
2013-05-05 10:32:00,67.7,41.2,30.11,East,83,2.0,9.0,38,0.00,,,0.00,WeatherCatV1.15B25,2013-05-05 14:32:00,
2013-05-05 10:37:00,68.0,42.1,30.11,East,88,6.0,9.0,39,0.00,,,0.00,WeatherCatV1.15B25,2013-05-05 14:37:00,
2013-05-05 10:42:00,67.5,38.9,30.11,SSE,149,7.0,9.0,35,0.00,,,0.00,WeatherCatV1.15B25,2013-05-05 14:42:00,
2013-05-05 10:47:00,67.7,37.6,30.11,SE,145,3.0,10.0,33,0.00,,,0.00,WeatherCatV1.15B25,2013-05-05 14:47:00,
2013-05-05 10:52:00,67.9,38.5,30.11,SSE,150,3.0,9.0,34,0.00,,,0.00,WeatherCatV1.15B25,2013-05-05 14:52:00,
2013-05-05 10:57:00,68.3,38.1,30.11,East,99,4.0,7.0,33,0.00,,,0.00,WeatherCatV1.15B25,2013-05-05 14:57:00,
2013-05-05 11:02:00,68.6,36.8,30.11,ESE,123,7.0,11.0,31,0.00,,,0.00,WeatherCatV1.15B25,2013-05-05 15:02:00,
2013-05-05 11:07:00,69.0,39.5,30.10,ESE,118,2.0,6.0,34,0.00,,,0.00,WeatherCatV1.15B25,2013-05-05 15:07:00,
2013-05-05 11:12:00,69.2,39.6,30.10,ESE,117,7.0,8.0,34,0.00,,,0.00,WeatherCatV1.15B25,2013-05-05 15:12:00,
2013-05-05 11:17:00,68.9,37.0,30.10,ESE,105,4.0,10.0,31,0.00,,,0.00,WeatherCatV1.15B25,2013-05-05 15:17:00,
2013-05-05 11:22:00,69.3,39.7,30.10,ESE,117,0.0,7.0,34,0.00,,,0.00,WeatherCatV1.15B25,2013-05-05 15:22:00,
2013-05-05 11:27:00,69.9,41.0,30.10,SSE,155,1.0,7.0,35,0.00,,,0.00,WeatherCatV1.15B25,2013-05-05 15:27:00,
2013-05-05 11:32:00,71.1,41.3,30.10,SE,134,0.0,4.0,34,0.00,,,0.00,WeatherCatV1.15B25,2013-05-05 15:32:00,
2013-05-05 11:37:00,70.9,39.6,30.09,ESE,122,4.0,6.0,32,0.00,,,0.00,WeatherCatV1.15B25,2013-05-05 15:37:00,
2013-05-05 11:43:00,70.6,36.8,30.10,SE,129,5.0,7.0,29,0.00,,,0.00,WeatherCatV1.15B25,2013-05-05 15:43:00,
2013-05-05 11:48:00,70.7,37.7,30.09,ESE,109,3.0,4.0,30,0.00,,,0.00,WeatherCatV1.15B25,2013-05-05 15:48:00,
2013-05-05 11:53:00,70.8,38.7,30.09,SSE,150,3.0,5.0,31,0.00,,,0.00,WeatherCatV1.15B25,2013-05-05 15:53:00,
2013-05-05 11:58:00,71.9,37.9,30.09,SE,129,2.0,5.0,29,0.00,,,0.00,WeatherCatV1.15B25,2013-05-05 15:58:00,
2013-05-05 12:03:00,71.6,35.8,30.09,ESE,103,3.0,8.0,27,0.00,,,0.00,WeatherCatV1.15B25,2013-05-05 16:03:00,
2013-05-05 12:08:00,72.0,38.0,30.09,SSE,148,2.0,5.0,29,0.00,,,0.00,WeatherCatV1.15B25,2013-05-05 16:08:00,
2013-05-05 12:13:00,71.8,35.1,30.09,SE,129,1.0,8.0,26,0.00,,,0.00,WeatherCatV1.15B25,2013-05-05 16:13:00,
2013-05-05 12:18:00,70.5,44.3,30.09,NNW,340,4.0,6.0,39,0.00,,,0.00,WeatherCatV1.15B25,2013-05-05 16:18:00,
2013-05-05 12:23:00,67.3,42.8,30.09,ENE,57,2.0,7.0,41,0.00,,,0.00,WeatherCatV1.15B25,2013-05-05 16:23:00,
2013-05-05 12:28:00,67.1,44.5,30.09,ENE,69,3.0,4.0,44,0.00,,,0.00,WeatherCatV1.15B25,2013-05-05 16:28:00,
2013-05-05 12:33:00,66.6,45.7,30.09,NNW,333,5.0,5.0,47,0.00,,,0.00,WeatherCatV1.15B25,2013-05-05 16:33:00,
2013-05-05 12:38:00,66.9,43.7,30.09,NNW,331,9.0,10.0,43,0.00,,,0.00,WeatherCatV1.15B25,2013-05-05 16:38:00,
2013-05-05 12:43:00,65.0,43.1,30.09,NW,325,7.0,11.0,45,0.00,,,0.00,WeatherCatV1.15B25,2013-05-05 16:43:00,
2013-05-05 12:48:00,64.4,43.7,30.09,NE,48,9.0,13.0,47,0.00,,,0.00,WeatherCatV1.15B25,2013-05-05 16:48:00,
2013-05-05 12:53:00,64.0,43.9,30.09,East,101,0.0,10.0,48,0.00,,,0.00,WeatherCatV1.15B25,2013-05-05 16:53:00,
2013-05-05 12:58:00,64.5,43.3,30.08,North,0,6.0,9.0,46,0.00,,,0.00,WeatherCatV1.15B25,2013-05-05 16:58:00,
2013-05-05 13:03:00,64.8,44.1,30.08,NNE,17,5.0,7.0,47,0.00,,,0.00,WeatherCatV1.15B25,2013-05-05 17:03:00,
2013-05-05 13:08:00,64.2,43.0,30.08,NNE,15,10.0,12.0,46,0.00,,,0.00,WeatherCatV1.15B25,2013-05-05 17:08:00,
2013-05-05 13:13:00,63.9,44.4,30.08,NNE,13,5.0,6.0,49,0.00,,,0.00,WeatherCatV1.15B25,2013-05-05 17:13:00,
2013-05-05 13:18:00,63.8,43.2,30.08,NNW,331,3.0,7.0,47,0.00,,,0.00,WeatherCatV1.15B25,2013-05-05 17:18:00,
2013-05-05 13:23:00,64.5,43.8,30.08,North,5,3.0,10.0,47,0.00,,,0.00,WeatherCatV1.15B25,2013-05-05 17:23:00,
2013-05-05 13:28:00,64.5,43.8,30.07,North,11,6.0,9.0,47,0.00,,,0.00,WeatherCatV1.15B25,2013-05-05 17:28:00,
2013-05-05 13:33:00,64.2,43.5,30.08,NNE,21,9.0,9.0,47,0.00,,,0.00,WeatherCatV1.15B25,2013-05-05 17:33:00,
2013-05-05 13:38:00,63.8,43.2,30.07,WNW,302,3.0,10.0,47,0.00,,,0.00,WeatherCatV1.15B25,2013-05-05 17:38:00,
2013-05-05 13:43:00,64.1,43.5,30.07,NNE,28,3.0,6.0,47,0.00,,,0.00,WeatherCatV1.15B25,2013-05-05 17:43:00,
2013-05-05 13:48:00,64.4,43.2,30.07,NNW,348,3.0,12.0,46,0.00,,,0.00,WeatherCatV1.15B25,2013-05-05 17:48:00,
2013-05-05 13:53:00,65.1,44.9,30.07,NE,44,1.0,3.0,48,0.00,,,0.00,WeatherCatV1.15B25,2013-05-05 17:53:00,
2013-05-05 13:58:00,65.6,43.1,30.07,East,90,2.0,10.0,44,0.00,,,0.00,WeatherCatV1.15B25,2013-05-05 17:58:00,
2013-05-05 14:03:00,64.9,41.9,30.07,NNW,333,6.0,13.0,43,0.00,,,0.00,WeatherCatV1.15B25,2013-05-05 18:03:00,
2013-05-05 14:08:00,64.9,43.0,30.07,NE,38,4.0,11.0,45,0.00,,,0.00,WeatherCatV1.15B25,2013-05-05 18:08:00,
2013-05-05 14:13:00,64.7,42.9,30.07,North,355,2.0,12.0,45,0.00,,,0.00,WeatherCatV1.15B25,2013-05-05 18:13:00,
2013-05-05 14:18:00,64.6,42.8,30.06,NNE,15,3.0,6.0,45,0.00,,,0.00,WeatherCatV1.15B25,2013-05-05 18:18:00,
2013-05-05 14:23:00,65.4,43.5,30.07,NE,39,13.0,13.0,45,0.00,,,0.00,WeatherCatV1.15B25,2013-05-05 18:23:00,
2013-05-05 14:28:00,65.3,42.8,30.06,NNE,26,5.0,8.0,44,0.00,,,0.00,WeatherCatV1.15B25,2013-05-05 18:28:00,
2013-05-05 14:33:00,65.3,44.0,30.07,ENE,64,1.0,4.0,46,0.00,,,0.00,WeatherCatV1.15B25,2013-05-05 18:33:00,
2013-05-05 14:38:00,65.7,43.2,30.06,North,355,6.0,8.0,44,0.00,,,0.00,WeatherCatV1.15B25,2013-05-05 18:38:00,
2013-05-05 14:43:00,65.5,44.2,30.06,NNE,16,4.0,10.0,46,0.00,,,0.00,WeatherCatV1.15B25,2013-05-05 18:43:00,
2013-05-05 14:48:00,64.9,41.9,30.06,North,355,3.0,11.0,43,0.00,,,0.00,WeatherCatV1.15B25,2013-05-05 18:48:00,
2013-05-05 14:53:00,64.4,41.4,30.06,ENE,68,5.0,12.0,43,0.00,,,0.00,WeatherCatV1.15B25,2013-05-05 18:53:00,
2013-05-05 14:58:00,64.9,44.2,30.06,North,355,1.0,3.0,47,0.00,,,0.00,WeatherCatV1.15B25,2013-05-05 18:58:00,
2013-05-05 15:03:00,64.9,43.6,30.06,NE,47,2.0,12.0,46,0.00,,,0.00,WeatherCatV1.15B25,2013-05-05 19:03:00,
2013-05-05 15:08:00,64.8,43.0,30.05,NE,34,9.0,9.0,45,0.00,,,0.00,WeatherCatV1.15B25,2013-05-05 19:08:00,
2013-05-05 15:13:00,64.9,42.5,30.06,NNE,16,9.0,9.0,44,0.00,,,0.00,WeatherCatV1.15B25,2013-05-05 19:13:00,
2013-05-05 15:18:00,64.6,42.8,30.06,NNW,343,9.0,11.0,45,0.00,,,0.00,WeatherCatV1.15B25,2013-05-05 19:18:00,
2013-05-05 15:23:00,64.5,43.3,30.06,North,0,5.0,9.0,46,0.00,,,0.00,WeatherCatV1.15B25,2013-05-05 19:23:00,
2013-05-05 15:28:00,65.9,46.7,30.05,North,349,5.0,5.0,50,0.00,,,0.00,WeatherCatV1.15B25,2013-05-05 19:28:00,
2013-05-05 15:33:00,65.3,43.4,30.05,ENE,64,5.0,10.0,45,0.00,,,0.00,WeatherCatV1.15B25,2013-05-05 19:33:00,
2013-05-05 15:38:00,64.9,44.2,30.05,North,5,5.0,12.0,47,0.00,,,0.00,WeatherCatV1.15B25,2013-05-05 19:38:00,
2013-05-05 15:43:00,64.8,43.5,30.04,ENE,57,3.0,8.0,46,0.00,,,0.00,WeatherCatV1.15B25,2013-05-05 19:43:00,
2013-05-05 15:48:00,64.8,43.5,30.04,NNW,343,4.0,10.0,46,0.00,,,0.00,WeatherCatV1.15B25,2013-05-05 19:48:00,
2013-05-05 15:53:00,65.2,45.0,30.04,North,355,3.0,5.0,48,0.00,,,0.00,WeatherCatV1.15B25,2013-05-05 19:53:00,
2013-05-05 15:58:00,65.9,45.1,30.04,North,11,0.0,8.0,47,0.00,,,0.00,WeatherCatV1.15B25,2013-05-05 19:58:00,
2013-05-05 16:03:00,66.5,43.9,30.04,NNE,25,5.0,9.0,44,0.00,,,0.00,WeatherCatV1.15B25,2013-05-05 20:03:00,
2013-05-05 16:08:00,66.6,44.0,30.03,North,349,0.0,11.0,44,0.00,,,0.00,WeatherCatV1.15B25,2013-05-05 20:08:00,
2013-05-05 16:13:00,66.8,43.0,30.03,NE,48,5.0,12.0,42,0.00,,,0.00,WeatherCatV1.15B25,2013-05-05 20:13:00,
2013-05-05 16:18:00,67.4,43.5,30.03,North,0,3.0,5.0,42,0.00,,,0.00,WeatherCatV1.15B25,2013-05-05 20:18:00,
2013-05-05 16:23:00,67.6,43.1,30.03,NW,319,7.0,9.0,41,0.00,,,0.00,WeatherCatV1.15B25,2013-05-05 20:23:00,
2013-05-05 16:28:00,67.8,42.6,30.03,North,9,0.0,5.0,40,0.00,,,0.00,WeatherCatV1.15B25,2013-05-05 20:28:00,
2013-05-05 16:33:00,68.0,43.4,30.03,North,351,0.0,6.0,41,0.00,,,0.00,WeatherCatV1.15B25,2013-05-05 20:33:00,
2013-05-05 16:38:00,67.9,42.0,30.03,East,79,0.0,15.0,39,0.00,,,0.00,WeatherCatV1.15B25,2013-05-05 20:38:00,
2013-05-05 16:43:00,68.1,42.9,30.02,NE,53,0.0,6.0,40,0.00,,,0.00,WeatherCatV1.15B25,2013-05-05 20:43:00,
2013-05-05 16:48:00,68.4,43.1,30.02,NE,35,4.0,5.0,40,0.00,,,0.00,WeatherCatV1.15B25,2013-05-05 20:48:00,
2013-05-05 16:53:00,68.5,42.6,30.02,NE,51,6.0,10.0,39,0.00,,,0.00,WeatherCatV1.15B25,2013-05-05 20:53:00,
2013-05-05 16:58:00,68.8,42.8,30.02,North,10,5.0,7.0,39,0.00,,,0.00,WeatherCatV1.15B25,2013-05-05 20:58:00,
2013-05-05 17:03:00,69.0,42.3,30.02,NE,43,0.0,6.0,38,0.00,,,0.00,WeatherCatV1.15B25,2013-05-05 21:03:00,
2013-05-05 17:08:00,69.4,42.7,30.02,ESE,113,0.0,9.0,38,0.00,,,0.00,WeatherCatV1.15B25,2013-05-05 21:08:00,
2013-05-05 17:13:00,69.8,42.3,30.02,East,95,3.0,5.0,37,0.00,,,0.00,WeatherCatV1.15B25,2013-05-05 21:13:00,
2013-05-05 17:18:00,69.4,42.7,30.02,North,0,4.0,13.0,38,0.00,,,0.00,WeatherCatV1.15B25,2013-05-05 21:18:00,
2013-05-05 17:23:00,68.8,42.8,30.02,NNE,19,6.0,9.0,39,0.00,,,0.00,WeatherCatV1.15B25,2013-05-05 21:23:00,
2013-05-05 17:28:00,68.8,41.5,30.01,NE,55,7.0,15.0,37,0.00,,,0.00,WeatherCatV1.15B25,2013-05-05 21:28:00,
2013-05-05 17:33:00,68.6,41.3,30.01,North,349,4.0,11.0,37,0.00,,,0.00,WeatherCatV1.15B25,2013-05-05 21:33:00,
2013-05-05 17:38:00,68.6,42.6,30.01,ENE,58,0.0,10.0,39,0.00,,,0.00,WeatherCatV1.15B25,2013-05-05 21:38:00,
2013-05-05 17:43:00,68.8,42.1,30.01,East,89,0.0,3.0,38,0.00,,,0.00,WeatherCatV1.15B25,2013-05-05 21:43:00,
2013-05-05 17:48:00,69.0,42.3,30.01,NE,50,6.0,15.0,38,0.00,,,0.00,WeatherCatV1.15B25,2013-05-05 21:48:00,
2013-05-05 17:53:00,69.2,42.5,30.01,NE,36,0.0,3.0,38,0.00,,,0.00,WeatherCatV1.15B25,2013-05-05 21:53:00,
2013-05-05 17:58:00,69.4,42.0,30.01,North,355,4.0,9.0,37,0.00,,,0.00,WeatherCatV1.15B25,2013-05-05 21:58:00,
2013-05-05 18:03:00,69.3,42.6,30.01,NNW,338,2.0,8.0,38,0.00,,,0.00,WeatherCatV1.15B25,2013-05-05 22:03:00,
2013-05-05 18:08:00,69.3,41.9,30.01,NW,304,6.0,6.0,37,0.00,,,0.00,WeatherCatV1.15B25,2013-05-05 22:08:00,
2013-05-05 18:13:00,69.4,42.0,30.00,East,80,3.0,4.0,37,0.00,,,0.00,WeatherCatV1.15B25,2013-05-05 22:13:00,
2013-05-05 18:18:00,69.6,42.2,30.00,NE,55,0.0,7.0,37,0.00,,,0.00,WeatherCatV1.15B25,2013-05-05 22:18:00,
2013-05-05 18:23:00,69.9,42.4,30.00,NE,50,0.0,8.0,37,0.00,,,0.00,WeatherCatV1.15B25,2013-05-05 22:23:00,
2013-05-05 18:28:00,70.3,42.8,30.00,North,0,4.0,9.0,37,0.00,,,0.00,WeatherCatV1.15B25,2013-05-05 22:28:00,
2013-05-05 18:33:00,70.6,41.6,30.00,NE,53,0.0,6.0,35,0.00,,,0.00,WeatherCatV1.15B25,2013-05-05 22:33:00,
2013-05-05 18:38:00,70.8,41.8,30.00,East,79,0.0,5.0,35,0.00,,,0.00,WeatherCatV1.15B25,2013-05-05 22:38:00,
2013-05-05 18:43:00,70.9,41.9,30.00,ENE,61,1.0,5.0,35,0.00,,,0.00,WeatherCatV1.15B25,2013-05-05 22:43:00,
2013-05-05 18:48:00,71.1,41.3,30.00,NNE,32,2.0,7.0,34,0.00,,,0.00,WeatherCatV1.15B25,2013-05-05 22:48:00,
2013-05-05 18:53:00,71.2,41.4,30.00,East,92,2.0,2.0,34,0.00,,,0.00,WeatherCatV1.15B25,2013-05-05 22:53:00,
2013-05-05 18:58:00,71.3,40.7,30.00,NW,321,5.0,10.0,33,0.00,,,0.00,WeatherCatV1.15B25,2013-05-05 22:58:00,
2013-05-05 19:03:00,71.1,41.3,29.99,NE,37,0.0,7.0,34,0.00,,,0.00,WeatherCatV1.15B25,2013-05-05 23:03:00,
2013-05-05 19:08:00,70.9,41.9,29.99,NE,34,0.0,1.0,35,0.00,,,0.00,WeatherCatV1.15B25,2013-05-05 23:08:00,
2013-05-05 19:13:00,70.7,42.4,30.00,North,9,4.0,5.0,36,0.00,,,0.00,WeatherCatV1.15B25,2013-05-05 23:13:00,
2013-05-05 19:18:00,70.5,43.7,30.00,ESE,112,0.0,2.0,38,0.00,,,0.00,WeatherCatV1.15B25,2013-05-05 23:18:00,
2013-05-05 19:23:00,70.2,44.1,30.00,ENE,65,0.0,4.0,39,0.00,,,0.00,WeatherCatV1.15B25,2013-05-05 23:23:00,
2013-05-05 19:28:00,70.1,43.3,30.00,East,86,2.0,5.0,38,0.00,,,0.00,WeatherCatV1.15B25,2013-05-05 23:28:00,
2013-05-05 19:33:00,69.9,43.8,30.00,NNE,28,2.0,4.0,39,0.00,,,0.00,WeatherCatV1.15B25,2013-05-05 23:33:00,
2013-05-05 19:38:00,69.8,43.0,30.00,NW,314,5.0,11.0,38,0.00,,,0.00,WeatherCatV1.15B25,2013-05-05 23:38:00,
2013-05-05 19:43:00,69.8,43.0,30.00,NE,49,2.0,3.0,38,0.00,,,0.00,WeatherCatV1.15B25,2013-05-05 23:43:00,
2013-05-05 19:48:00,69.6,42.9,30.00,NNE,22,3.0,4.0,38,0.00,,,0.00,WeatherCatV1.15B25,2013-05-05 23:48:00,
2013-05-05 19:53:00,69.4,43.4,30.00,NE,51,0.0,3.0,39,0.00,,,0.00,WeatherCatV1.15B25,2013-05-05 23:53:00,
2013-05-05 19:58:00,69.2,42.5,30.00,NE,35,2.0,6.0,38,0.00,,,0.00,WeatherCatV1.15B25,2013-05-05 23:58:00,
2013-05-05 20:03:00,69.1,42.4,30.00,NNE,33,3.0,6.0,38,0.00,,,0.00,WeatherCatV1.15B25,2013-05-06 00:03:00,
2013-05-05 20:08:00,68.9,42.9,30.00,NE,36,0.0,6.0,39,0.00,,,0.00,WeatherCatV1.15B25,2013-05-06 00:08:00,
2013-05-05 20:13:00,68.6,42.6,30.00,ENE,74,0.0,4.0,39,0.00,,,0.00,WeatherCatV1.15B25,2013-05-06 00:13:00,
2013-05-05 20:18:00,68.3,42.4,30.00,NE,36,0.0,0.0,39,0.00,,,0.00,WeatherCatV1.15B25,2013-05-06 00:18:00,
2013-05-05 20:23:00,68.0,42.1,30.00,NE,36,0.0,0.0,39,0.00,,,0.00,WeatherCatV1.15B25,2013-05-06 00:23:00,
2013-05-05 20:28:00,67.6,42.4,30.00,NNE,15,0.0,3.0,40,0.00,,,0.00,WeatherCatV1.15B25,2013-05-06 00:28:00,
2013-05-05 20:33:00,67.3,42.1,30.00,NNE,28,0.0,1.0,40,0.00,,,0.00,WeatherCatV1.15B25,2013-05-06 00:33:00,
2013-05-05 20:38:00,66.9,42.4,30.00,NNE,28,0.0,1.0,41,0.00,,,0.00,WeatherCatV1.15B25,2013-05-06 00:38:00,
2013-05-05 20:43:00,66.5,42.7,30.00,NNE,28,0.0,0.0,42,0.00,,,0.00,WeatherCatV1.15B25,2013-05-06 00:43:00,
2013-05-05 20:48:00,66.1,42.3,30.01,NNE,28,0.0,0.0,42,0.00,,,0.00,WeatherCatV1.15B25,2013-05-06 00:48:00,
2013-05-05 20:53:00,65.8,42.1,30.01,NNE,28,0.0,0.0,42,0.00,,,0.00,WeatherCatV1.15B25,2013-05-06 00:53:00,
2013-05-05 20:58:00,65.5,42.4,30.01,NNE,28,0.0,0.0,43,0.00,,,0.00,WeatherCatV1.15B25,2013-05-06 00:58:00,
2013-05-05 21:03:00,65.1,42.6,30.01,NNE,28,0.0,0.0,44,0.00,,,0.00,WeatherCatV1.15B25,2013-05-06 01:03:00,
2013-05-05 21:08:00,64.7,42.3,30.01,NNE,28,0.0,0.0,44,0.00,,,0.00,WeatherCatV1.15B25,2013-05-06 01:08:00,
2013-05-05 21:13:00,64.3,42.5,30.02,NNE,28,0.0,0.0,45,0.00,,,0.00,WeatherCatV1.15B25,2013-05-06 01:13:00,
2013-05-05 21:18:00,64.0,42.8,30.02,NNE,28,0.0,0.0,46,0.00,,,0.00,WeatherCatV1.15B25,2013-05-06 01:18:00,
2013-05-05 21:23:00,63.7,43.1,30.02,NNE,28,0.0,0.0,47,0.00,,,0.00,WeatherCatV1.15B25,2013-05-06 01:23:00,
2013-05-05 21:28:00,63.3,43.3,30.02,NNE,28,0.0,0.0,48,0.00,,,0.00,WeatherCatV1.15B25,2013-05-06 01:28:00,
2013-05-05 21:33:00,62.5,45.1,30.02,NNE,28,0.0,0.0,53,0.00,,,0.00,WeatherCatV1.15B25,2013-05-06 01:33:00,
2013-05-05 21:38:00,61.9,43.6,30.02,NNE,28,0.0,0.0,51,0.00,,,0.00,WeatherCatV1.15B25,2013-05-06 01:38:00,
2013-05-05 21:43:00,61.6,43.8,30.02,NNE,28,0.0,1.0,52,0.00,,,0.00,WeatherCatV1.15B25,2013-05-06 01:43:00,
2013-05-05 21:48:00,61.4,44.1,30.02,NNE,28,0.0,0.0,53,0.00,,,0.00,WeatherCatV1.15B25,2013-05-06 01:48:00,
2013-05-05 21:53:00,61.0,44.2,30.02,NNE,28,0.0,0.0,54,0.00,,,0.00,WeatherCatV1.15B25,2013-05-06 01:53:00,
2013-05-05 21:58:00,60.5,44.2,30.02,NNE,28,0.0,0.0,55,0.00,,,0.00,WeatherCatV1.15B25,2013-05-06 01:58:00,
2013-05-05 22:03:00,60.1,44.3,30.02,NNE,28,0.0,0.0,56,0.00,,,0.00,WeatherCatV1.15B25,2013-05-06 02:03:00,
2013-05-05 22:08:00,59.5,44.7,30.02,NNE,28,0.0,0.0,58,0.00,,,0.00,WeatherCatV1.15B25,2013-05-06 02:08:00,
2013-05-05 22:13:00,59.1,44.3,30.02,NNE,28,0.0,0.0,58,0.00,,,0.00,WeatherCatV1.15B25,2013-05-06 02:13:00,
2013-05-05 22:18:00,58.7,44.4,30.02,NNE,28,0.0,0.0,59,0.00,,,0.00,WeatherCatV1.15B25,2013-05-06 02:18:00,
2013-05-05 22:23:00,58.3,44.9,30.02,NNE,28,0.0,0.0,61,0.00,,,0.00,WeatherCatV1.15B25,2013-05-06 02:23:00,
2013-05-05 22:28:00,57.9,44.5,30.02,NNE,28,0.0,0.0,61,0.00,,,0.00,WeatherCatV1.15B25,2013-05-06 02:28:00,
2013-05-05 22:33:00,57.3,44.4,30.02,NNE,28,0.0,0.0,62,0.00,,,0.00,WeatherCatV1.15B25,2013-05-06 02:33:00,
2013-05-05 22:38:00,56.7,44.7,30.02,NNE,28,0.0,0.0,64,0.00,,,0.00,WeatherCatV1.15B25,2013-05-06 02:38:00,
2013-05-05 22:43:00,56.2,44.2,30.02,NNE,28,0.0,0.0,64,0.00,,,0.00,WeatherCatV1.15B25,2013-05-06 02:43:00,
2013-05-05 22:48:00,55.7,44.1,30.02,NNE,28,0.0,0.0,65,0.00,,,0.00,WeatherCatV1.15B25,2013-05-06 02:48:00,
2013-05-05 22:53:00,55.1,44.3,30.02,NNE,28,0.0,0.0,67,0.00,,,0.00,WeatherCatV1.15B25,2013-05-06 02:53:00,
2013-05-05 22:58:00,54.7,44.3,30.02,NNE,28,0.0,0.0,68,0.00,,,0.00,WeatherCatV1.15B25,2013-05-06 02:58:00,
2013-05-05 23:03:00,54.4,44.1,30.02,NNE,28,0.0,0.0,68,0.00,,,0.00,WeatherCatV1.15B25,2013-05-06 03:03:00,
2013-05-05 23:08:00,54.0,44.1,30.02,NNE,28,0.0,0.0,69,0.00,,,0.00,WeatherCatV1.15B25,2013-05-06 03:08:00,
2013-05-05 23:13:00,53.6,43.7,30.02,NNE,28,0.0,0.0,69,0.00,,,0.00,WeatherCatV1.15B25,2013-05-06 03:13:00,
2013-05-05 23:18:00,53.3,42.6,30.02,NNE,28,0.0,0.0,67,0.00,,,0.00,WeatherCatV1.15B25,2013-05-06 03:18:00,
2013-05-05 23:23:00,53.2,41.7,30.02,SSE,166,0.0,2.0,65,0.00,,,0.00,WeatherCatV1.15B25,2013-05-06 03:23:00,
2013-05-05 23:28:00,53.7,40.1,30.02,SSE,166,0.0,0.0,60,0.00,,,0.00,WeatherCatV1.15B25,2013-05-06 03:28:00,
2013-05-05 23:33:00,54.0,36.8,30.02,SSE,165,0.0,0.0,52,0.00,,,0.00,WeatherCatV1.15B25,2013-05-06 03:33:00,
2013-05-05 23:38:00,56.3,31.7,30.02,ESE,123,2.0,3.0,39,0.00,,,0.00,WeatherCatV1.15B25,2013-05-06 03:38:00,
2013-05-05 23:43:00,59.4,30.3,30.02,ESE,123,2.0,5.0,33,0.00,,,0.00,WeatherCatV1.15B25,2013-05-06 03:43:00,
2013-05-05 23:48:00,61.6,32.2,30.02,ESE,123,0.0,0.0,33,0.00,,,0.00,WeatherCatV1.15B25,2013-05-06 03:48:00,
2013-05-05 23:53:00,61.0,31.7,30.02,ESE,123,2.0,2.0,33,0.00,,,0.00,WeatherCatV1.15B25,2013-05-06 03:53:00,
2013-05-05 23:58:00,61.0,30.1,30.03,SE,146,0.0,3.0,31,0.00,,,0.00,WeatherCatV1.15B25,2013-05-06 03:58:00,